Regional Weather Roundup
Issued by NWS Sioux Falls, SD

Home | Current Version | Previous Version | Text Only | Print | Product List | Glossary Off
Versions: 1 2 3 4 5 6 7 8 9 10 11 12 13 14 15 16 17 18 19 20 21 22 23 24 25 26 27 28 29 30 31 32 33 34 35 36 37 38 39 40 41 42 43 44 45 46 47 48 49 50

000
ASUS43 KFSD 250902
RWRFSD

WEATHER ROUNDUP FOR SE SOUTH DAKOTA/SW MINNESOTA/NW IOWA
NATIONAL WEATHER SERVICE SIOUX FALLS SD
400 AM CDT THU MAY 25 2017

NOTE: "FAIR" INDICATES FEW OR NO CLOUDS BELOW 12,000 FEET WITH NO
SIGNIFICANT WEATHER AND OR OBSTRUCTIONS TO VISIBILITY.


SDZ038>040-050-052>070-251000-
SOUTHEAST SOUTH DAKOTA

CITY           SKY/WX    TMP DP  RH WIND       PRES   REMARKS
BROOKINGS      CLEAR     47  43  86 SE14      29.59F
CHAMBERLAIN    MOCLDY    54  46  76 SE17      29.43S
HURON          CLOUDY    51  44  77 SE17G30   29.49F
MADISON        FAIR      46  46 100 SE14      29.58F
MITCHELL       PTCLDY    52  44  74 SE21      29.52F
SIOUX FALLS    CLEAR     50  45  83 SE14      29.59F
WINNER         FAIR      57  44  62 S26G38    29.37F
YANKTON        CLEAR     51  43  74 SE9       29.58F
$$

MNZ071-072-080-081-089-090-097-098-251000-
SOUTHWEST MINNESOTA

CITY           SKY/WX    TMP DP  RH WIND       PRES   REMARKS
FAIRMONT       CLEAR     46  45  96 CALM      29.68R
JACKSON        CLEAR     46  45  93 CALM      29.67S
LUVERNE        CLOUDY    46  43  87 SE5       29.64S
MARSHALL       CLEAR     47  44  90 SE10      29.64F
MONTEVIDEO     CLEAR     46  45  93 S8        29.64F
PIPESTONE      CLEAR     48  43  81 SE12      29.62F
REDWOOD FALLS  CLEAR     47  43  86 SE5       29.66S
TRACY          CLEAR     48  46  91 S9        29.65S
WINDOM         CLEAR     46  45  93 SE5       29.67R
WORTHINGTON    CLEAR     46  43  89 SE8       29.66F
$$

IAZ001>003-012>014-020>022-031-032-NEZ013-014-SDZ071-251000-
NORTHWEST IOWA

CITY           SKY/WX    TMP DP  RH WIND       PRES   REMARKS
ESTHERVILLE    CLEAR     45  45 100 S6        29.66R
SIOUX CITY     CLEAR     48  46  93 SE8       29.62F
SPENCER        CLEAR     46  44  93 SE6       29.67R
$$

ABBREVIATIONS USED IN REMARKS
   TC - TEMPERATURE IN CELSIUS
  WCI - WIND CHILL INDEX
   HX - HEAT INDEX
  VSB - VISIBILITY





USA.gov is the U.S. government's official web portal to all federal, state and local government web resources and services.